Location: *
(40.9167°N, 9.5000°E)
Time: 19:19:18
(UTC+00:00)

Cosmos 1892 - Pass Details

Date: 09 April 2020
Orbit: 503 x 526 km, 82.5° (Epoch: 31 May)

Event Time Altitude Azimuth Distance (km) Brightness Sun altitude
Rises 19:56:58 0° 359° (N) 2,671 6.8 -22.0°
Reaches altitude 10° 19:59:12 10° 6° (N) 1,777 5.7 -22.3°
Enters shadow 20:01:40 32° 32° (NNE) 932 3.9 -22.7°
